User: anonymous   Login
Location: Unspecified
(0.0000°N, 0.0000°E)
Time: 07:05:43
(UTC+00:00)
Language:

STSS DEMO 2 (USA 209) - Orbit

View from above orbital plane
View from above orbital plane
View from above satellite
View from above satellite

Ground track
Ground track

The orbit data is extracted from the following two-line orbital elements,

1 35938U 09052B   18047.12559726 0.00000000  00000-0  00000-0 0    04
2 35938  57.9903  84.2921 0017794 189.6955 170.3045 12.79331925    02
Epoch (UTC): 16 February 2018 03:00:51
Eccentricity: 0.0017794
inclination: 57.9903°
perigee height: 1330 km
apogee height: 1358 km
right ascension of ascending node: 84.2921°
argument of perigee: 189.6955°
revolutions per day: 12.79331925
mean anomaly at epoch: 170.3045°
orbit number at epoch: 0

The dashed part of the orbit path shows where the satellite is in the earth's shadow,  

DLR